Погода в Брюховецкой

Россия / Краснодарский край     45°48′07″N   38°59′50″E
темп.,
°C
ветер,
м/с
пор.,
м/с
влажн.,
%
обл.,
%
осадки,
мм/ч
давл.,
гПа
погр.,
м
13 мая, чт
чт1300:00+11вюв22895 0.0 101317
03:00+10вюв22900 0.0 101212
06:00+11в22870 0.0 101317
09:00+17вюв22725 0.0 1013344
12:00+21всв336070 0.0 1012690
15:00+23в4459100 0.0 1012898
18:00+21в3778100 0.0 1012203
21:00+17всв411885 0.0 1011170
14 мая, пт
пт1400:00+15в412920 0.0 1010211
03:00+14вюв49935 0.0 1010147
06:00+14юв23895 0.0 101056
09:00+21вюв226656 0.0 1010265
12:00+26вюв23566 0.0 1010628
15:00+28вюв235152 0.0 10101007
18:00+27в116781 0.0 101014
21:00+19сз457964 0.0 101175
15 мая, сб
сб1500:00+17ссз35780 0.0 101091
03:00+15сз36660 0.0 101298
06:00+14сз35764 0.0 101387
09:00+21ссз34655 0.0 1014371
12:00+24ссз22565 0.0 1014864
15:00+26с22545 0.0 10131169
18:00+25св24715 0.0 1012152
21:00+20св22805 0.0 101219
16 мая, вс
вс1600:00+18ссв3581100 0.0 101186
03:00+17ссв3781100 0.1 1011121
06:00+17всв2593100 1.0 1010120
09:00+23всв457976 1.0 1009384
12:00+26всв4563100 0.0 1008814
15:00+27всв5664100 0.0 10061115
18:00+25всв587891 0.0 1005379
21:00+20св49880 0.0 1004161
17 мая, пн
пн1700:00+18всв488412 0.0 1003143
03:00+16в38675 0.0 1004133
06:00+16всв34765 0.0 100478
09:00+21ююв23666 0.0 1005348
12:00+26юз3657100 0.0 1006827
15:00+28юз455382 0.0 10061257
18:00+23зюз2478100 0.0 1008225
21:00+19зюз3483100 0.0 100956